BERGEN / FLESLAND current weather conditions

sailwx.info

Wind from 140 at 6 knots

Air temperature 4.0° C
Visibility: greater than 5.4 NM
Dewpoint 2.0° C

Last reported at 2014-Nov-26 09:20 UTC.
Time now 2014-Nov-26 11:16 UTC

Location: N 60°17' E 005°14'.
View on Google Maps.

See reports from other nearby stations

  
Tides and Currents Weather Stations Pressure Air Temp Water Temp Dewpoint Dewpoint Depression Visibility Wind Speed Wind Dir Waves Ship Positions
date/time (UTC)wind fromknots sea level pressurealtimeterstation pressurevisibilityair tempwater tempwave heightnotes
2014-Nov-26 10:20 170 2 5.4 4.0
2014-Nov-26 09:50 170 2 5.4 4.0
2014-Nov-26 09:20 140 6 5.4 4.0
2014-Nov-26 08:50 5.4 3.0
2014-Nov-26 08:20 140 3 5.4 2.0
2014-Nov-26 07:50 130 4 1.0
2014-Nov-26 07:20 160 3 2.0
2014-Nov-26 06:50 5.4 1.0
2014-Nov-26 06:20 1.0
2014-Nov-26 05:50 5.4 2.0
2014-Nov-26 05:20 1.0
2014-Nov-26 04:50 1.0
2014-Nov-26 03:50 1.0
2014-Nov-26 02:50 1.0
2014-Nov-26 01:50 5.4 1.0
2014-Nov-26 00:50 5.4 1.0
2014-Nov-25 23:50 100 1 5.4 2.0 Shallow fog.
2014-Nov-25 22:50 120 3 5.4 2.0 Shallow fog.
2014-Nov-25 22:20 120 3 5.4 2.0
2014-Nov-25 21:50 160 3 5.4 2.0
2014-Nov-25 21:20 5.4 3.0
2014-Nov-25 20:50 5.4 4.0
2014-Nov-25 20:20 5.4 4.0
2014-Nov-25 19:50 130 1 5.4 4.0
2014-Nov-25 19:20 090 3 5.4 5.0
2014-Nov-25 18:50 130 4 5.4 5.0
2014-Nov-25 18:20 180 3 5.4 5.0 Showers in the vicinity.
2014-Nov-25 17:50 5.4 5.0 Light drizzle.
2014-Nov-25 17:20 5.4 5.0 Light rain showers.
2014-Nov-25 16:50 5.4 5.0 Fog in the vicinity.
2014-Nov-25 16:20 120 3 5.4 4.0 Fog in the vicinity.
2014-Nov-25 15:50 130 2 5.4 5.0 Fog in the vicinity.
2014-Nov-25 15:20 090 3 5.4 6.0 Partial fog.
2014-Nov-25 14:50 5.4 6.0 Partial fog.
2014-Nov-25 14:20 170 4 5.4 7.0
2014-Nov-25 13:50 5.4 8.0
2014-Nov-25 13:20 160 2 5.4 8.0
2014-Nov-25 12:50 5.4 7.0 Showers in the vicinity.
2014-Nov-25 12:20 5.4 8.0 Showers in the vicinity.
2014-Nov-25 11:50 130 3 5.4 8.0 Showers in the vicinity.
2014-Nov-25 11:20 100 2 4.3 7.0
2014-Nov-25 10:50 120 2 5.4 7.0 Showers in the vicinity.
2014-Nov-25 10:20 5.4 7.0 Showers in the vicinity.
2014-Nov-25 09:50 150 4 5.4 7.0 Showers in the vicinity.
2014-Nov-25 09:20 160 4 5.4 7.0 Showers in the vicinity.
2014-Nov-25 08:50 170 5 5.4 7.0
2014-Nov-25 08:20 150 3 5.4 7.0
2014-Nov-25 07:50 160 6 5.4 7.0 Light rain showers.
2014-Nov-25 07:20 200 10 5.4 8.0 Light rain showers.
2014-Nov-25 06:50 180 9 5.4 8.0 Light rain showers.
2014-Nov-25 06:20 180 11 5.4 8.0 Light rain showers.
2014-Nov-25 05:50 180 13 5.4 8.0
2014-Nov-25 05:20 170 10 5.4 7.0 Showers in the vicinity.
2014-Nov-25 04:50 150 8 5.4 7.0 Light rain showers.
2014-Nov-25 04:20 150 9 5.4 7.0
2014-Nov-25 03:50 140 7 5.4 7.0
2014-Nov-25 02:50 140 6 5.4 6.0
2014-Nov-25 01:50 140 6 5.4 6.0
2014-Nov-25 00:50 140 6 5.4 6.0 Light rain showers.
2014-Nov-24 23:50 140 2 5.4 5.0
2014-Nov-24 22:50 130 4 5.4 6.0
2014-Nov-24 22:20 140 4 5.4 5.0
2014-Nov-24 21:50 120 4 5.4 5.0
2014-Nov-24 21:20 120 4 5.4 5.0
2014-Nov-24 20:50 150 5 5.4 5.0
2014-Nov-24 20:20 150 4 5.4 5.0 Light rain showers.
2014-Nov-24 19:50 140 4 5.4 4.0
2014-Nov-24 19:20 5.4 5.0 Showers in the vicinity.
2014-Nov-24 18:50 060 3 5.4 6.0 Light rain showers.
2014-Nov-24 18:20 030 4 5.4 6.0 Showers in the vicinity.
2014-Nov-24 17:50 340 4 5.4 6.0
2014-Nov-24 17:20 030 3 3.8 5.0 Rain drizzle.
2014-Nov-24 16:50 020 4 5.4 6.0 Showers in the vicinity.
2014-Nov-24 16:20 330 6 5.4 7.0 Showers in the vicinity.
2014-Nov-24 15:50 360 4 5.4 6.0 Showers in the vicinity.
2014-Nov-24 15:20 320 4 5.4 6.0 Showers in the vicinity.
2014-Nov-24 14:50 5.4 6.0 Showers in the vicinity.
2014-Nov-24 14:20 340 1 5.4 5.0
2014-Nov-24 13:50 5.4 6.0 Showers in the vicinity.
2014-Nov-24 13:20 5.4 6.0 Showers in the vicinity.
2014-Nov-24 12:50 330 6 5.4 6.0 Showers in the vicinity.
2014-Nov-24 12:20 340 7 5.4 6.0 Showers in the vicinity.
2014-Nov-24 11:50 360 6 5.4 6.0 Showers in the vicinity.
2014-Nov-24 11:20 340 9 5.4 6.0 Light rain drizzle.